TimeEDT,TemperatureF,Dew PointF,Humidity,Sea Level PressureIn,VisibilityMPH,Wind Direction,Wind SpeedMPH,Gust SpeedMPH,PrecipitationIn,Events,Conditions,WindDirDegrees,DateUTC
12:15 AM,25.7,21.2,83,30.23,10.0,Calm,Calm,-,N/A,,Clear,0,2013-03-28 04:15:00
12:35 AM,25.0,20.1,82,30.23,10.0,Calm,Calm,-,N/A,,Clear,0,2013-03-28 04:35:00
12:55 AM,25.0,20.1,82,30.23,10.0,Calm,Calm,-,N/A,,Clear,0,2013-03-28 04:55:00
1:15 AM,23.9,19.4,83,30.23,10.0,Calm,Calm,-,N/A,,Clear,0,2013-03-28 05:15:00
1:35 AM,24.6,20.3,84,30.23,10.0,Calm,Calm,-,N/A,,Clear,0,2013-03-28 05:35:00
1:55 AM,23.4,19.8,86,30.23,10.0,Calm,Calm,-,N/A,,Clear,0,2013-03-28 05:55:00
2:15 AM,23.0,19.6,87,30.23,10.0,Calm,Calm,-,N/A,,Clear,0,2013-03-28 06:15:00
2:35 AM,23.0,19.4,86,30.23,10.0,Calm,Calm,-,N/A,,Clear,0,2013-03-28 06:35:00
2:55 AM,22.3,19.2,88,30.23,10.0,Calm,Calm,-,N/A,,Clear,0,2013-03-28 06:55:00
3:35 AM,21.9,18.9,88,30.23,10.0,Calm,Calm,-,N/A,,Clear,0,2013-03-28 07:35:00
3:55 AM,21.6,18.1,87,30.23,10.0,Calm,Calm,-,N/A,,Clear,0,2013-03-28 07:55:00
4:15 AM,21.0,17.6,87,30.23,10.0,Calm,Calm,-,N/A,,Clear,0,2013-03-28 08:15:00
4:35 AM,21.2,18.0,87,30.23,10.0,Calm,Calm,-,N/A,,Clear,0,2013-03-28 08:35:00
4:55 AM,21.0,18.1,89,30.23,10.0,Calm,Calm,-,N/A,,Clear,0,2013-03-28 08:55:00
5:15 AM,20.3,17.4,89,30.23,10.0,Calm,Calm,-,N/A,,Clear,0,2013-03-28 09:15:00
5:35 AM,20.1,17.4,89,30.24,10.0,Calm,Calm,-,N/A,,Clear,0,2013-03-28 09:35:00
5:55 AM,19.8,17.1,89,30.24,10.0,Calm,Calm,-,N/A,,Clear,0,2013-03-28 09:55:00
6:15 AM,20.1,17.4,89,30.25,10.0,Calm,Calm,-,N/A,,Clear,0,2013-03-28 10:15:00
6:35 AM,19.2,16.3,89,30.25,10.0,Calm,Calm,-,N/A,,Clear,0,2013-03-28 10:35:00
6:55 AM,20.5,18.0,90,30.26,10.0,Calm,Calm,-,N/A,,Clear,0,2013-03-28 10:55:00
7:15 AM,19.2,16.5,89,30.27,10.0,Calm,Calm,-,N/A,,Clear,0,2013-03-28 11:15:00
7:35 AM,19.4,16.7,89,30.27,10.0,Calm,Calm,-,N/A,,Clear,0,2013-03-28 11:35:00
7:55 AM,19.9,17.2,89,30.28,10.0,Calm,Calm,-,N/A,,Clear,0,2013-03-28 11:55:00
8:15 AM,21.9,19.2,89,30.28,10.0,Calm,Calm,-,N/A,,Clear,0,2013-03-28 12:15:00
8:35 AM,24.1,21.2,89,30.29,10.0,Calm,Calm,-,N/A,,Clear,0,2013-03-28 12:35:00
8:55 AM,25.9,21.9,85,30.29,10.0,Calm,Calm,-,N/A,,Clear,0,2013-03-28 12:55:00
9:15 AM,29.3,23.0,77,30.29,10.0,Calm,Calm,-,N/A,,Clear,0,2013-03-28 13:15:00
9:35 AM,33.1,26.2,76,30.29,10.0,Calm,Calm,-,N/A,,Clear,0,2013-03-28 13:35:00
9:55 AM,37.6,24.1,58,30.29,10.0,Calm,Calm,-,N/A,,Clear,0,2013-03-28 13:55:00
10:15 AM,39.7,19.9,45,30.29,10.0,North,5.8,-,N/A,,Clear,350,2013-03-28 14:15:00
10:35 AM,41.4,18.7,40,30.29,10.0,WNW,6.9,-,N/A,,Clear,300,2013-03-28 14:35:00
10:55 AM,41.9,15.3,34,30.29,10.0,NNW,9.2,16.1,N/A,,Clear,330,2013-03-28 14:55:00
11:15 AM,42.8,13.6,31,30.28,10.0,North,10.4,-,N/A,,Clear,350,2013-03-28 15:15:00
11:35 AM,44.8,15.3,31,30.28,10.0,NNW,10.4,-,N/A,,Clear,330,2013-03-28 15:35:00
11:55 AM,45.7,12.9,27,30.28,10.0,NW,10.4,-,N/A,,Clear,310,2013-03-28 15:55:00
12:15 PM,46.8,12.9,26,30.28,10.0,WNW,10.4,16.1,N/A,,Scattered Clouds,300,2013-03-28 16:15:00
12:35 PM,47.5,11.3,23,30.27,10.0,WNW,9.2,-,N/A,,Scattered Clouds,290,2013-03-28 16:35:00
12:55 PM,48.2,7.9,19,30.27,10.0,NNW,10.4,17.3,N/A,,Clear,340,2013-03-28 16:55:00
1:15 PM,48.9,7.2,18,30.26,10.0,NNW,11.5,17.3,N/A,,Clear,330,2013-03-28 17:15:00
1:35 PM,49.5,5.2,16,30.25,10.0,West,4.6,17.3,N/A,,Clear,260,2013-03-28 17:35:00
1:55 PM,50.4,5.9,16,30.26,10.0,NNW,11.5,16.1,N/A,,Clear,330,2013-03-28 17:55:00
2:15 PM,52.0,8.6,17,30.25,10.0,WNW,11.5,19.6,N/A,,Clear,290,2013-03-28 18:15:00
2:35 PM,52.3,8.1,17,30.24,10.0,North,12.7,17.3,N/A,,Clear,360,2013-03-28 18:35:00
2:55 PM,51.6,7.2,17,30.23,10.0,NNE,9.2,-,N/A,,Clear,30,2013-03-28 18:55:00
3:15 PM,53.4,9.1,17,30.22,10.0,NNE,16.1,20.7,N/A,,Clear,20,2013-03-28 19:15:00
3:35 PM,52.7,5.9,15,30.21,10.0,WNW,8.1,21.9,N/A,,Clear,300,2013-03-28 19:35:00
3:55 PM,53.1,6.1,15,30.21,10.0,NNW,13.8,21.9,N/A,,Clear,340,2013-03-28 19:55:00
4:15 PM,52.9,7.9,16,30.21,10.0,NNW,10.4,16.1,N/A,,Clear,330,2013-03-28 20:15:00
4:35 PM,53.4,9.1,17,30.20,10.0,WNW,8.1,20.7,N/A,,Clear,290,2013-03-28 20:35:00
4:55 PM,53.4,9.5,17,30.20,10.0,WNW,9.2,24.2,N/A,,Clear,290,2013-03-28 20:55:00
5:15 PM,52.9,9.0,17,30.21,10.0,West,13.8,20.7,N/A,,Clear,280,2013-03-28 21:15:00
5:35 PM,52.5,8.8,17,30.21,10.0,NW,6.9,10.4,N/A,,Clear,310,2013-03-28 21:35:00
5:55 PM,51.8,9.0,18,30.21,10.0,NW,9.2,17.3,N/A,,Clear,310,2013-03-28 21:55:00
6:15 PM,51.8,9.9,19,30.22,10.0,NW,11.5,16.1,N/A,,Clear,310,2013-03-28 22:15:00
6:35 PM,50.9,10.2,20,30.22,10.0,NNW,11.5,17.3,N/A,,Clear,340,2013-03-28 22:35:00
6:55 PM,50.2,11.5,21,30.22,10.0,NW,9.2,-,N/A,,Clear,320,2013-03-28 22:55:00
7:15 PM,49.5,14.5,25,30.23,10.0,WNW,6.9,-,N/A,,Clear,300,2013-03-28 23:15:00
7:35 PM,47.8,15.4,27,30.23,10.0,WNW,4.6,-,N/A,,Clear,300,2013-03-28 23:35:00
7:55 PM,46.8,15.6,29,30.23,10.0,NW,3.5,-,N/A,,Clear,320,2013-03-28 23:55:00
8:15 PM,42.1,21.4,44,30.25,10.0,Calm,Calm,-,N/A,,Clear,0,2013-03-29 00:15:00
8:35 PM,37.4,24.3,59,30.25,10.0,Calm,Calm,-,N/A,,Clear,0,2013-03-29 00:35:00
8:55 PM,36.1,24.3,62,30.26,10.0,SW,4.6,-,N/A,,Clear,230,2013-03-29 00:55:00
9:15 PM,35.1,23.7,63,30.26,10.0,Calm,Calm,-,N/A,,Clear,0,2013-03-29 01:15:00
9:35 PM,32.0,24.6,74,30.27,10.0,Calm,Calm,-,N/A,,Clear,0,2013-03-29 01:35:00
9:55 PM,31.8,23.7,72,30.27,10.0,Calm,Calm,-,N/A,,Clear,0,2013-03-29 01:55:00
10:15 PM,30.7,23.7,75,30.27,10.0,Calm,Calm,-,N/A,,Clear,0,2013-03-29 02:15:00
10:35 PM,30.4,24.6,79,30.28,10.0,Calm,Calm,-,N/A,,Clear,0,2013-03-29 02:35:00
10:55 PM,29.3,23.5,79,30.28,10.0,Calm,Calm,-,N/A,,Clear,0,2013-03-29 02:55:00
11:15 PM,28.2,23.2,81,30.29,10.0,Calm,Calm,-,N/A,,Clear,0,2013-03-29 03:15:00
11:35 PM,27.9,23.5,84,30.29,10.0,Calm,Calm,-,N/A,,Clear,0,2013-03-29 03:35:00
11:55 PM,26.8,23.0,86,30.30,10.0,Calm,Calm,-,N/A,,Clear,0,2013-03-29 03:55:00